Time,TemperatureF,DewpointF,PressureIn,WindDirection,WindDirectionDegrees,WindSpeedMPH,WindSpeedGustMPH,Humidity,HourlyPrecipIn,Conditions,Clouds,dailyrainin,SoftwareType,DateUTC
2013-04-10 00:29:00,42.8,35.4,29.65,NE,45,0.0,2.0,75,0.00,,FEW,0.00,WeatherDisplay:10.37,2013-04-09 23:29:00,
2013-04-10 01:00:00,43.0,35.6,29.65,NE,45,0.0,3.0,75,0.00,,FEW,0.00,WeatherDisplay:10.37,2013-04-10 00:00:00,
2013-04-10 01:30:00,43.0,35.6,29.65,SW,225,0.0,3.0,75,0.00,,FEW,0.00,WeatherDisplay:10.37,2013-04-10 00:30:00,
2013-04-10 02:00:00,43.0,35.6,29.65,SW,225,0.0,3.0,75,0.00,,FEW,0.00,WeatherDisplay:10.37,2013-04-10 01:00:00,
2013-04-10 02:30:00,42.8,35.7,29.65,SW,225,0.0,1.0,76,0.00,,FEW,0.00,WeatherDisplay:10.37,2013-04-10 01:30:00,
2013-04-10 02:59:00,42.4,35.4,29.65,NE,45,0.0,1.0,76,0.00,,FEW,0.00,WeatherDisplay:10.37,2013-04-10 01:59:00,
2013-04-10 03:30:00,42.3,35.6,29.65,NE,45,0.0,1.0,77,0.00,,FEW,0.00,WeatherDisplay:10.37,2013-04-10 02:30:00,
2013-04-10 03:59:00,42.3,35.9,29.65,NE,45,0.0,2.0,78,0.00,,FEW,0.00,WeatherDisplay:10.37,2013-04-10 02:59:00,
2013-04-10 04:29:00,42.3,36.5,29.64,NE,45,0.0,1.0,80,0.00,,FEW,0.00,WeatherDisplay:10.37,2013-04-10 03:29:00,
2013-04-10 04:59:00,42.1,36.4,29.64,NE,45,0.0,2.0,80,0.00,,FEW,0.00,WeatherDisplay:10.37,2013-04-10 03:59:00,
2013-04-10 05:29:00,41.9,36.5,29.65,NE,45,0.0,2.0,81,0.00,,FEW,0.00,WeatherDisplay:10.37,2013-04-10 04:29:00,
2013-04-10 05:59:00,41.9,36.5,29.64,NE,45,0.0,2.0,81,0.00,,FEW,0.00,WeatherDisplay:10.37,2013-04-10 04:59:00,
2013-04-10 06:29:00,41.9,36.8,29.64,NE,45,0.0,2.0,82,0.00,,FEW,0.00,WeatherDisplay:10.37,2013-04-10 05:29:00,
2013-04-10 06:59:00,42.1,37.3,29.64,NE,45,0.0,3.0,83,0.00,,FEW,0.00,WeatherDisplay:10.37,2013-04-10 05:59:00,
2013-04-10 07:29:00,42.3,37.5,29.64,NE,45,0.0,1.0,83,0.00,,FEW,0.00,WeatherDisplay:10.37,2013-04-10 06:29:00,
2013-04-10 07:59:00,42.6,38.1,29.64,NE,45,0.0,2.0,84,0.00,,FEW,0.00,WeatherDisplay:10.37,2013-04-10 06:59:00,
2013-04-10 08:29:00,43.0,38.5,29.63,NE,45,0.0,6.0,84,0.00,,FEW,0.00,WeatherDisplay:10.37,2013-04-10 07:29:00,
2013-04-10 09:00:00,43.3,38.8,29.64,NE,45,0.0,7.0,84,0.00,,FEW,0.00,WeatherDisplay:10.37,2013-04-10 08:00:00,
2013-04-10 09:30:00,43.5,39.0,29.64,NE,45,0.0,8.0,84,0.00,,FEW,0.00,WeatherDisplay:10.37,2013-04-10 08:30:00,
2013-04-10 10:00:00,43.7,39.2,29.64,NE,45,0.0,8.0,84,0.00,,FEW,0.00,WeatherDisplay:10.37,2013-04-10 09:00:00,
2013-04-10 10:29:00,43.9,39.7,29.63,NE,45,0.0,10.0,85,0.01,,FEW,0.01,WeatherDisplay:10.37,2013-04-10 09:29:00,
2013-04-10 10:59:00,44.2,40.6,29.63,NE,45,0.0,8.0,87,0.00,,FEW,0.01,WeatherDisplay:10.37,2013-04-10 09:59:00,
2013-04-10 11:29:00,45.0,41.7,29.62,NE,45,0.0,5.0,88,0.00,,FEW,0.01,WeatherDisplay:10.37,2013-04-10 10:29:00,
2013-04-10 11:59:00,45.5,42.2,29.62,NE,45,0.0,2.0,88,0.00,,FEW,0.01,WeatherDisplay:10.37,2013-04-10 10:59:00,
2013-04-10 12:29:00,46.0,42.7,29.62,NE,45,0.0,1.0,88,0.00,,FEW,0.01,WeatherDisplay:10.37,2013-04-10 11:29:00,
2013-04-10 12:59:00,46.6,42.6,29.62,NE,45,0.0,1.0,86,0.00,,FEW,0.01,WeatherDisplay:10.37,2013-04-10 11:59:00,
2013-04-10 13:29:00,47.1,42.5,29.62,NE,45,0.0,1.0,84,0.00,,FEW,0.01,WeatherDisplay:10.37,2013-04-10 12:29:00,
2013-04-10 13:59:00,47.3,41.4,29.61,NE,45,0.0,10.0,80,0.00,,FEW,0.01,WeatherDisplay:10.37,2013-04-10 12:59:00,
2013-04-10 14:29:00,46.4,40.2,29.60,NE,45,0.0,10.0,79,0.00,,FEW,0.01,WeatherDisplay:10.37,2013-04-10 13:29:00,
2013-04-10 14:59:00,46.4,40.9,29.59,NE,45,0.0,8.0,81,0.00,,FEW,0.01,WeatherDisplay:10.37,2013-04-10 13:59:00,
2013-04-10 15:29:00,46.9,41.7,29.58,NE,45,0.0,8.0,82,0.00,,FEW,0.01,WeatherDisplay:10.37,2013-04-10 14:29:00,
2013-04-10 15:59:00,46.6,41.4,29.58,NE,45,0.0,10.0,82,0.00,,FEW,0.01,WeatherDisplay:10.37,2013-04-10 14:59:00,
2013-04-10 16:29:00,46.4,41.2,29.57,NE,45,5.0,15.0,82,0.00,,FEW,0.01,WeatherDisplay:10.37,2013-04-10 15:29:00,
2013-04-10 16:59:00,46.7,41.5,29.57,NE,45,6.0,14.0,82,0.00,,FEW,0.01,WeatherDisplay:10.37,2013-04-10 15:59:00,
2013-04-10 17:29:00,46.6,41.1,29.56,NE,45,0.0,11.0,81,0.00,,FEW,0.01,WeatherDisplay:10.37,2013-04-10 16:29:00,
2013-04-10 18:00:00,46.2,40.4,29.56,NE,45,1.0,13.0,80,0.00,,FEW,0.01,WeatherDisplay:10.37,2013-04-10 17:00:00,
2013-04-10 18:30:00,45.9,40.0,29.56,NE,45,0.0,11.0,80,0.00,,FEW,0.01,WeatherDisplay:10.37,2013-04-10 17:30:00,
2013-04-10 19:00:00,45.5,40.0,29.55,NE,45,0.0,7.0,81,0.00,,FEW,0.01,WeatherDisplay:10.37,2013-04-10 18:00:00,
2013-04-10 19:29:00,45.0,39.5,29.54,NE,45,0.0,1.0,81,0.00,,FEW,0.01,WeatherDisplay:10.37,2013-04-10 18:29:00,
2013-04-10 19:59:00,44.4,39.3,29.54,NE,45,0.0,2.0,82,0.00,,FEW,0.01,WeatherDisplay:10.37,2013-04-10 18:59:00,
2013-04-10 20:29:00,44.1,38.9,29.54,NE,45,0.0,1.0,82,0.00,,FEW,0.01,WeatherDisplay:10.37,2013-04-10 19:29:00,
2013-04-10 21:00:00,44.1,38.9,29.53,NE,45,0.0,6.0,82,0.00,,FEW,0.01,WeatherDisplay:10.37,2013-04-10 20:00:00,
2013-04-10 21:30:00,44.1,38.9,29.53,NE,45,0.0,6.0,82,0.00,,FEW,0.01,WeatherDisplay:10.37,2013-04-10 20:30:00,
2013-04-10 22:30:00,44.6,39.4,29.52,NE,45,0.0,6.0,82,0.00,CLR,FEW,0.01,WeatherDisplay:10.37,2013-04-10 21:30:00,
2013-04-10 23:00:00,44.6,39.4,29.51,NE,45,0.0,5.0,82,0.00,CLR,FEW,0.01,WeatherDisplay:10.37,2013-04-10 22:00:00,
2013-04-10 23:29:00,45.0,39.8,29.50,NE,45,0.0,7.0,82,0.00,CLR,FEW,0.01,WeatherDisplay:10.37,2013-04-10 22:29:00,